User: anonymous   Login
Location: Unspecified
(0.0000°N, 0.0000°E)
Time: 17:28:06
(UTC+00:00)
Language:

COSMOS 2439 - Orbit

View from above orbital plane
View from above orbital plane
View from above satellite
View from above satellite

Ground track
Ground track

The orbit data is extracted from the following two-line orbital elements,

1 32956U 08025D   18049.74032627 +.00000030 +00000-0 +14045-3 0  9993
2 32956 082.5055 087.5638 0021867 108.4731 251.8727 12.43003735442052
Epoch (UTC): 18 February 2018 17:46:04
Eccentricity: 0.0021867
inclination: 82.5055°
perigee height: 1476 km
apogee height: 1511 km
right ascension of ascending node: 87.5638°
argument of perigee: 108.4731°
revolutions per day: 12.43003735
mean anomaly at epoch: 251.8727°
orbit number at epoch: 44205

The dashed part of the orbit path shows where the satellite is in the earth's shadow,  

DLR